Regional Weather Roundup
Issued by NWS Cleveland, OH

Home | Current Version | Previous Version | Text Only | Print | Product List | Glossary On
Versions: 1 2 3 4 5 6 7 8 9 10 11 12 13 14 15 16 17 18 19 20 21 22 23 24 25 26 27 28 29 30 31 32 33 34 35 36 37 38 39 40 41 42 43 44 45 46 47 48 49 50
000
ASUS41 KCLE 050212
RWRCLE
OHIO REGIONAL WEATHER ROUNDUP
NATIONAL WEATHER SERVICE WILMINGTON, OH
1000 PM EDT WED MAY 04 2016

NOTE: "FAIR" INDICATES FEW OR NO CLOUDS BELOW 12,000 FEET WITH NO
SIGNIFICANT WEATHER AND/OR OBSTRUCTIONS TO VISIBILITY.

OHZ001>008-015>018-024>027-034-035-043-044-050300-
   NORTHWEST OHIO

CITY           SKY/WX    TMP DP  RH WIND       PRES   REMARKS
DEFIANCE       CLOUDY    43  36  76 W5        29.71R
FINDLAY        CLOUDY    46  37  71 W9        29.70R
TOLEDO EXPRESS CLOUDY    45  40  82 NW5       29.70R
TOLEDO EXEC    CLOUDY    47  40  76 NW9       29.71R
LIMA           CLOUDY    43  37  79 W10       29.70S
$$

OHZ009>014-019>023-028>033-038-089-050300-
   NORTHEAST OHIO

CITY           SKY/WX    TMP DP  RH WIND       PRES   REMARKS
CLE-HOPKINS    LGT RAIN  51  48  89 CALM      29.71R
CLE-LAKEFRONT  LGT RAIN  52  48  86 N3        29.69R
CUY CO. ARPT   LGT RAIN  52  46  82 W6        29.70R
LORAIN-ELYRIA  LGT RAIN  48  45  89 W5        29.70R
ASHTABULA      MOCLDY    52  43  71 W5        29.68R
AKRON-CANTON   LGT RAIN  50  46  86 W5        29.69R
WOOSTER        LGT RAIN  47  45  93 NW7       29.70R
MANSFIELD      CLOUDY    46  44  93 W5        29.69R
YOUNGSTOWN     CLOUDY    51  44  77 W9        29.68S
$$

OHZ042-051>053-060>062-070>072-077>081-050300-
  SOUTHWEST OHIO

CITY           SKY/WX    TMP DP  RH WIND       PRES   REMARKS
CINC-COVINGTON FAIR      47  36  65 NW10      29.76R
CINC-LUNKEN    FAIR      48  38  68 NW3       29.77R
HAMILTON       FAIR      48  36  63 NW10      29.77R
DAYTON         CLOUDY    46  35  65 NW10      29.74R
WRIGHT-PAT AFB CLOUDY    48  36  64 W10       29.73R
DAYTON GENERAL CLOUDY    48  34  58 NW10      29.73S
WILMINGTON     CLOUDY    47  38  71 NW13      29.73R
$$

OHZ036-037-039>041-045>050-054>059-063>069-073>076-082>088-050300-
  CENTRAL AND SOUTHEAST OHIO

CITY           SKY/WX    TMP DP  RH WIND       PRES   REMARKS
COLUMBUS       MOCLDY    47  40  76 NW9       29.71R
OSU AIRPORT    CLOUDY    47  39  74 NW14      29.71R
BOLTON FIELD   CLOUDY    47  40  77 NW10G16   29.72R
RICKENBACK AFB CLOUDY    47  41  77 NW10G17   29.71R
NEWARK         FAIR      49  43  80 NW6       29.69R
MARION         CLOUDY    46  41  82 NW8       29.71R
LANCASTER      MOCLDY    48  41  76 NW6       29.71R
ZANESVILLE     LGT RAIN  51  47  86 NW6       29.69R
NEW PHILLY     LGT RAIN  51  47  86 E3        29.69R
$$




USA.gov is the U.S. government's official web portal to all federal, state and local government web resources and services.